Location: Wildlife_Club
(35.6000°N, 81.4330°W)
Time: 00:17:43
(UTC-04:00)

Vanguard 2 Rocket - Pass Details

Date: 18 June 2019
Orbit: 554 x 3326 km, 32.9° (Epoch: 19 July)

Event Time Altitude Azimuth Distance (km) Brightness Sun altitude
Rises 01:29:16 0° 260° (W) 4,872 10.5 -31.0°
Reaches altitude 10° 01:31:55 10° 259° (W) 4,179 10.1 -31.0°
Maximum altitude 01:44:17 80° 174° (S) 2,656 8.9 -30.9°
Drops below altitude 10° 02:03:57 10° 92° (E) 6,256 11.2 -30.3°
Sets 02:08:59 0° 91° (E) 7,315 11.6 -30.2°
